EW9925 Weather Reports


time (UTC)temp
F
wind
direction
speed
knots
gust
knots
rain 1hr
in
rain 24hr
in
rain mn
in
humidity
%
barometer
mb
20260507062734 50 57 0.0 1.7 0.00 0.00 0.00 94 1012.1
20260507062231 50 234 0.0 2.6 0.00 0.00 0.00 93 1012.2
20260507061730 50 27 0.0 2.6 0.00 0.00 0.00 93 1012.4
20260507061227 50 89 0.0 2.6 0.00 0.00 0.00 93 1012.2
20260507060725 50 24 0.9 2.6 0.00 0.00 0.00 93 1012.2
20260507060221 50 89 1.7 1.7 0.00 0.00 0.00 93 1012.1
20260507055718 50 75 0.0 2.6 0.00 0.00 0.00 94 1012.3
20260507055213 50 120 1.7 2.6 0.00 0.00 0.00 94 1012.2
20260507054709 50 119 0.9 3.5 0.00 0.00 0.00 93 1012.1
20260507054207 50 125 0.0 1.7 0.00 0.00 0.00 92 1012.1
20260507053704 50 282 1.7 2.6 0.00 0.00 0.00 92 1011.9
20260507053202 50 89 0.0 2.6 0.00 0.00 0.00 92 1012.2
20260507052701 50 170 0.0 3.5 0.00 0.00 0.00 92 1012.3
20260507052156 51 100 1.7 4.3 0.00 0.00 0.00 91 1012.2
20260507051654 51 80 2.6 4.3 0.00 0.00 0.00 91 1012.3
20260507051150 51 253 0.0 5.2 0.00 0.00 0.00 92 1012.3
20260507050647 51 285 2.6 7.0 0.00 0.00 0.00 91 1012.3
20260507050144 51 232 1.7 6.1 0.00 0.00 0.00 91 1012.2
20260507045641 51 29 3.5 7.0 0.00 0.00 0.00 92 1012.3
20260507045137 51 28 0.0 4.3 0.00 0.00 0.00 92 1012.0
20260507044635 51 84 0.9 5.2 0.00 0.00 0.00 91 1012.2
20260507044131 51 54 2.6 3.5 0.00 0.00 0.00 92 1012.0
20260507043627 51 104 1.7 3.5 0.00 0.00 0.00 92 1011.9
20260507043124 51 52 0.0 7.0 0.00 0.00 0.00 91 1012.2
20260507042621 52 71 3.5 6.1 0.00 0.00 0.00 91 1012.0
20260507042116 51 63 1.7 3.5 0.00 0.00 0.00 91 1012.0
20260507041613 51 268 0.9 5.2 0.00 0.00 0.00 91 1011.8
20260507041110 52 306 1.7 4.3 0.00 0.00 0.00 91 1011.8
20260507040607 52 310 2.6 4.3 0.00 0.00 0.00 91 1011.7
20260507035558 52 338 1.7 2.6 0.00 0.00 0.00 91 1011.5
20260507035055 52 117 0.9 3.5 0.00 0.00 0.00 90 1011.6
20260507034552 52 68 2.6 5.2 0.00 0.00 0.00 90 1011.6
20260507034050 53 136 1.7 6.1 0.00 0.00 0.00 90 1011.6
20260507033548 53 312 2.6 12.2 0.00 0.00 0.00 89 1011.4
20260507033045 53 355 1.7 5.2 0.00 0.00 0.00 89 1011.4
20260507032542 53 332 1.7 6.1 0.00 0.00 0.00 89 1011.4
20260507032038 53 280 2.6 5.2 0.00 0.00 0.00 89 1011.2
20260507031534 54 69 3.5 4.3 0.00 0.00 0.00 88 1011.1
20260507031032 54 56 0.0 6.1 0.00 0.00 0.00 88 1011.1
20260507030528 55 247 0.9 4.3 0.00 0.00 0.00 87 1011.0
20260507030026 55 294 4.3 5.2 0.00 0.00 0.00 87 1011.0
20260507025523 55 26 0.9 6.1 0.00 0.00 0.00 86 1011.0
20260507025020 55 335 1.7 5.2 0.00 0.00 0.00 86 1011.0
20260507024518 56 268 2.6 4.3 0.00 0.00 0.00 86 1011.0
20260507024014 56 312 0.9 4.3 0.00 0.00 0.00 85 1011.0
20260507023510 57 119 1.7 6.1 0.00 0.00 0.00 84 1011.0
20260507023003 57 271 2.6 4.3 0.00 0.00 0.00 83 1011.1
20260507022459 57 69 0.9 2.6 0.00 0.00 0.00 84 1011.1
20260507021954 57 5 2.6 5.2 0.00 0.00 0.00 82 1011.1
20260507021450 58 338 3.5 5.2 0.00 0.00 0.00 82 1011.1
20260507020947 58 23 0.9 8.7 0.00 0.00 0.00 82 1011.0
20260507020444 58 299 1.7 6.1 0.00 0.00 0.00 81 1011.1
20260507015941 59 333 5.2 7.8 0.00 0.00 0.00 80 1011.0
20260507015440 59 321 0.9 3.5 0.00 0.00 0.00 80 1011.2
20260507014936 60 0 2.6 10.4 0.00 0.00 0.00 79 1011.0
20260507014433 60 331 1.7 5.2 0.00 0.00 0.00 80 1011.0
20260507013929 60 275 2.6 5.2 0.00 0.00 0.00 79 1011.2
20260507013426 60 305 1.7 4.3 0.00 0.00 0.00 80 1011.0
20260507012924 60 338 4.3 7.8 0.00 0.00 0.00 79 1011.1
20260507012420 60 160 0.0 6.1 0.00 0.00 0.00 80 1010.9
20260507011916 60 331 4.3 7.0 0.00 0.00 0.00 78 1011.1
20260507011413 60 150 2.6 6.1 0.00 0.00 0.00 78 1011.2
20260507010908 61 289 1.7 9.6 0.00 0.00 0.00 77 1010.9
20260507010403 62 86 1.7 7.0 0.00 0.00 0.00 76 1011.0
20260507005901 62 284 1.7 5.2 0.00 0.00 0.00 76 1011.1
20260507005357 62 238 1.7 4.3 0.00 0.00 0.00 76 1011.2
20260507004854 62 333 3.5 9.6 0.00 0.00 0.00 75 1011.1
20260507004351 62 278 0.9 11.3 0.00 0.00 0.00 75 1011.0
20260507003850 63 62 1.7 6.1 0.00 0.00 0.00 75 1010.9
20260507003344 63 306 1.7 5.2 0.00 0.00 0.00 74 1011.0
20260507002839 64 262 2.6 3.5 0.00 0.00 0.00 75 1011.0
20260507002335 64 292 2.6 6.1 0.00 0.00 0.00 74 1011.0
20260507001833 64 203 1.7 6.1 0.00 0.00 0.00 74 1010.8
20260507001329 64 297 4.3 6.1 0.00 0.00 0.00 73 1011.0
20260507000826 65 296 0.9 6.1 0.00 0.00 0.00 74 1010.8
20260507000321 65 14 1.7 6.1 0.00 0.00 0.00 74 1010.9
20260506235818 65 198 0.9 7.0 0.00 0.00 0.00 73 1010.9
20260506235314 65 294 2.6 6.1 0.00 0.00 0.00 72 1011.0
20260506234805 66 285 0.9 6.1 0.00 0.00 0.00 72 1010.8
20260506234303 66 274 2.6 3.5 0.00 0.00 0.00 73 1010.8
20260506233800 66 277 2.6 7.0 0.00 0.00 0.00 72 1010.9
20260506233256 67 272 2.6 7.0 0.00 0.00 0.00 72 1010.9
20260506232753 66 289 4.3 7.8 0.00 0.00 0.00 72 1010.9
20260506232248 67 310 4.3 7.8 0.00 0.00 0.00 71 1010.9
20260506231745 68 46 2.6 7.8 0.00 0.00 0.00 71 1011.0
20260506231244 68 329 1.7 6.1 0.00 0.00 0.00 69 1011.0
20260506230740 69 91 1.7 3.5 0.00 0.00 0.00 71 1010.8
20260506230237 69 324 3.5 5.2 0.00 0.00 0.00 71 1010.8
20260506225734 70 314 2.6 7.8 0.00 0.00 0.00 66 1010.9
20260506225231 70 308 1.7 4.3 0.00 0.00 0.00 68 1011.0
20260506224727 71 322 2.6 2.6 0.00 0.00 0.00 66 1010.8
20260506224224 70 266 0.9 5.2 0.00 0.00 0.00 65 1010.8
20260506223720 71 87 2.6 4.3 0.00 0.00 0.00 63 1011.0
20260506223216 71 61 3.5 4.3 0.00 0.00 0.00 63 1011.0
20260506222714 71 285 1.7 4.3 0.00 0.00 0.00 66 1011.0
20260506222209 69 226 0.0 6.1 0.00 0.00 0.00 67 1011.0
20260506221707 71 306 1.7 5.2 0.00 0.00 0.00 67 1011.2
20260506221205 71 281 4.3 5.2 0.00 0.00 0.00 66 1011.2
20260506220702 71 165 2.6 5.2 0.00 0.00 0.00 65 1011.2
20260506220157 72 9 1.7 4.3 0.00 0.00 0.00 65 1011.3
20260506215653 71 284 0.0 3.5 0.00 0.00 0.00 65 1011.3
20260506215148 71 24 2.6 5.2 0.00 0.00 0.00 64 1011.3
20260506214646 71 354 1.7 3.5 0.00 0.00 0.00 65 1011.3
20260506214143 72 268 1.7 4.3 0.00 0.00 0.00 64 1011.3
20260506213642 70 289 1.7 2.6 0.00 0.00 0.00 71 1011.2
20260506213139 69 326 1.7 4.3 0.00 0.00 0.00 69 1011.3
20260506212636 68 271 0.9 1.7 0.00 0.00 0.00 71 1011.3
20260506212130 68 259 1.7 3.5 0.00 0.00 0.00 69 1011.3
20260506211626 68 164 2.6 4.3 0.00 0.00 0.00 71 1011.2
20260506211123 70 105 1.7 2.6 0.00 0.00 0.00 70 1011.2
20260506210620 69 255 1.7 7.0 0.00 0.00 0.00 71 1011.2
20260506210117 68 306 1.7 4.3 0.00 0.00 0.00 73 1011.2
20260506205614 67 186 0.9 2.6 0.00 0.00 0.00 71 1011.4
20260506205108 67 269 1.7 4.3 0.00 0.00 0.00 73 1011.6
20260506204607 65 113 0.9 2.6 0.00 0.00 0.00 75 1011.6
20260506204103 65 112 2.6 4.3 0.00 0.00 0.00 76 1011.5
20260506203602 65 107 0.9 4.3 0.00 0.00 0.00 77 1011.5
20260506203058 65 321 0.9 4.3 0.00 0.00 0.00 76 1011.9
20260506202556 66 174 1.7 4.3 0.00 0.00 0.00 74 1011.7
20260506202052 65 110 0.0 2.6 0.00 0.00 0.00 79 1011.6
20260506201549 65 126 0.9 3.5 0.00 0.00 0.00 80 1011.6
20260506201046 65 17 0.9 2.6 0.00 0.00 0.00 79 1012.0
20260506200542 65 330 4.3 9.6 0.00 0.00 0.00 77 1011.7
20260506200039 65 301 0.0 5.2 0.00 0.00 0.00 78 1011.7
20260506195536 65 3 1.7 3.5 0.00 0.00 0.00 78 1011.8
20260506195032 65 273 0.9 4.3 0.00 0.00 0.00 80 1011.7
20260506194530 64 289 0.9 4.3 0.00 0.00 0.00 79 1011.7
20260506194026 64 112 4.3 6.1 0.00 0.00 0.00 78 1011.9
20260506193523 65 140 0.9 6.1 0.00 0.00 0.00 79 1011.8
20260506193021 64 303 5.2 8.7 0.00 0.00 0.00 78 1011.8
20260506192517 62 337 1.7 9.6 0.00 0.00 0.00 81 1011.8
20260506192013 62 139 4.3 8.7 0.00 0.00 0.00 82 1011.7
20260506191510 64 138 1.7 4.3 0.00 0.00 0.00 78 1011.9
20260506191006 62 334 2.6 7.8 0.00 0.00 0.00 81 1011.8
20260506190503 63 122 1.7 5.2 0.00 0.00 0.00 83 1011.7
20260506190000 63 346 0.9 4.3 0.00 0.00 0.00 82 1012.0
20260506185458 62 120 0.0 3.5 0.00 0.00 0.00 85 1012.0
20260506184954 61 326 1.7 8.7 0.00 0.00 0.00 85 1011.9
20260506184451 61 347 6.1 9.6 0.00 0.00 0.00 83 1012.2
20260506183948 61 320 0.0 2.6 0.00 0.00 0.00 86 1011.9
20260506183444 60 345 1.7 5.2 0.00 0.00 0.00 87 1011.9
20260506182941 60 337 0.9 5.2 0.00 0.00 0.00 85 1011.9
20260506182438 60 359 0.0 4.3 0.00 0.00 0.00 85 1011.9
20260506181935 60 16 1.7 4.3 0.00 0.00 0.00 85 1011.9
20260506181433 61 331 0.9 3.5 0.00 0.00 0.00 84 1011.9
20260506180930 60 305 1.7 5.2 0.00 0.00 0.00 86 1011.9
20260506180426 59 181 3.5 8.7 0.00 0.00 0.00 86 1011.7
20260506175923 59 106 2.6 5.2 0.00 0.00 0.00 84 1011.7
20260506175420 60 339 2.6 3.5 0.00 0.00 0.00 86 1011.7
20260506174917 59 56 2.6 3.5 0.00 0.00 0.00 85 1012.1
20260506174414 58 329 1.7 4.3 0.00 0.00 0.00 88 1012.1
20260506173911 58 28 1.7 3.5 0.00 0.00 0.00 88 1012.1
20260506173408 58 326 1.7 2.6 0.00 0.00 0.00 86 1012.1
20260506172900 57 284 1.7 2.6 0.00 0.00 0.00 89 1011.8
20260506172356 56 120 3.5 4.3 0.00 0.00 0.00 90 1012.1
20260506171853 56 337 2.6 7.0 0.00 0.00 0.00 90 1012.0
20260506171351 57 355 0.0 2.6 0.00 0.00 0.00 90 1011.8
20260506170848 56 350 0.9 3.5 0.00 0.00 0.00 90 1011.8
20260506170343 56 89 0.0 1.7 0.00 0.00 0.00 91 1011.8
20260506165838 55 18 0.9 3.5 0.00 0.00 0.00 92 1011.9
20260506165335 55 144 0.0 3.5 0.00 0.00 0.00 93 1011.9
20260506164831 55 254 2.6 4.3 0.00 0.00 0.00 92 1011.8
20260506164327 55 48 0.9 4.3 0.00 0.00 0.00 92 1012.0
20260506163819 55 331 0.0 3.5 0.00 0.00 0.00 92 1012.0
20260506163314 55 1 0.9 3.5 0.00 0.00 0.00 91 1012.0
20260506162810 55 18 0.0 2.6 0.00 0.00 0.00 91 1011.9
20260506162308 55 346 1.7 5.2 0.00 0.00 0.00 92 1011.9
20260506161804 55 87 2.6 3.5 0.00 0.00 0.00 91 1011.8
20260506161301 56 40 1.7 2.6 0.00 0.00 0.00 92 1011.6
20260506160754 55 35 1.7 6.1 0.00 0.00 0.00 91 1011.5
20260506160250 55 310 1.7 6.1 0.00 0.00 0.00 93 1011.3
20260506155749 54 48 1.7 1.7 0.00 0.00 0.00 93 1011.3
20260506155245 53 113 1.7 3.5 0.00 0.00 0.00 93 1011.3
20260506153353 53 70 0.9 2.6 0.00 0.00 0.00 94 1011.7
20260506152850 53 29 0.0 2.6 0.00 0.00 0.00 94 1011.7
20260506152347 52 81 0.0 3.5 0.00 0.00 0.00 95 1011.9
20260506151845 52 45 0.9 4.3 0.00 0.00 0.00 95 1011.8
20260506151342 52 269 0.0 2.6 0.00 0.00 0.00 95 1012.0
20260506150839 52 347 2.6 8.7 0.00 0.00 0.00 95 1012.0
20260506150335 51 299 1.7 4.3 0.00 0.00 0.00 95 1012.2
20260506145832 51 284 1.7 6.1 0.00 0.00 0.00 95 1012.0
20260506145329 52 30 2.6 3.5 0.00 0.00 0.00 95 1011.9
20260506144826 52 31 0.9 4.3 0.00 0.00 0.00 95 1011.9
20260506144322 52 39 0.9 6.1 0.00 0.00 0.00 94 1011.8
20260506143821 52 310 1.7 5.2 0.00 0.00 0.00 95 1011.3
20260506143318 52 5 0.9 5.2 0.00 0.00 0.00 95 1011.4
20260506142816 52 335 2.6 5.2 0.00 0.00 0.00 94 1011.3
20260506142313 52 82 0.9 2.6 0.00 0.00 0.00 94 1011.0
20260506141812 52 348 0.9 2.6 0.00 0.00 0.00 94 1010.9
20260506141310 52 91 2.6 3.5 0.00 0.00 0.00 95 1010.6
20260506140807 52 124 3.5 5.2 0.00 0.00 0.00 96 1010.6
20260506140304 51 115 2.6 2.6 0.00 0.00 0.00 98 1010.6
20260506135801 51 22 0.0 2.6 0.00 0.00 0.00 98 1010.8
20260506135257 50 89 2.6 2.6 0.00 0.00 0.00 99 1010.8
20260506134754 50 169 0.0 2.6 0.00 0.00 0.00 99 1010.5
20260506134250 50 101 0.0 2.6 0.00 0.00 0.00 99 1010.9
20260506133747 50 103 0.0 2.6 0.00 0.00 0.00 99 1010.8
20260506133244 51 129 0.0 1.7 0.00 0.00 0.00 99 1010.9
20260506132741 51 89 0.0 0.9 0.00 0.00 0.00 99 1010.8
20260506132238 51 101 0.0 2.6 0.00 0.00 0.00 99 1010.6
20260506131736 51 89 0.0 0.9 0.00 0.00 0.00 98 1010.6
20260506131232 51 101 1.7 2.6 0.00 0.00 0.00 98 1010.6
20260506130729 51 138 0.0 1.7 0.00 0.00 0.00 98 1010.5
20260506130226 51 218 0.0 2.6 0.00 0.00 0.00 98 1010.3
20260506125724 51 136 0.9 1.7 0.00 0.00 0.00 98 1010.4
20260506125222 51 67 0.9 1.7 0.00 0.00 0.00 98 1010.3
20260506124719 51 297 0.0 2.6 0.00 0.00 0.00 98 1010.6
20260506124217 51 83 0.0 2.6 0.00 0.00 0.00 98 1010.4
20260506123714 51 108 0.0 1.7 0.00 0.00 0.00 98 1010.4
20260506123213 51 320 0.9 1.7 0.00 0.00 0.00 98 1010.6
20260506122709 51 344 0.0 1.7 0.00 0.00 0.00 98 1010.4
20260506122207 51 47 0.0 1.7 0.00 0.00 0.00 98 1010.6
20260506121705 51 40 0.0 1.7 0.00 0.00 0.00 98 1010.5
20260506121201 51 89 0.0 1.7 0.00 0.00 0.00 98 1010.5
20260506120659 51 279 0.0 2.6 0.00 0.00 0.00 98 1010.2
20260506120156 51 249 0.9 1.7 0.00 0.00 0.00 98 1010.5
20260506115654 51 317 3.5 4.3 0.00 0.00 0.00 98 1010.4
20260506115152 51 81 2.6 3.5 0.00 0.00 0.00 98 1010.3
20260506114649 51 64 1.7 3.5 0.00 0.00 0.00 99 1010.2
20260506114147 51 283 4.3 6.1 0.00 0.00 0.00 99 1010.2
20260506113645 51 83 1.7 2.6 0.00 0.00 0.00 99 1009.9
20260506113142 51 73 0.0 1.7 0.00 0.00 0.00 99 1010.0
20260506112638 51 294 0.0 3.5 0.00 0.00 0.00 99 1009.8
20260506112136 51 348 0.0 2.6 0.00 0.00 0.00 99 1009.8
20260506111633 51 75 0.9 1.7 0.00 0.00 0.00 99 1009.8
20260506111131 51 212 0.0 3.5 0.00 0.00 0.00 99 1009.7
20260506110628 51 355 0.0 1.7 0.00 0.00 0.00 99 1009.8
20260506110125 51 303 0.9 2.6 0.00 0.00 0.00 99 1009.7
20260506105622 50 299 0.0 2.6 0.00 0.00 0.00 99 1009.6
20260506105119 50 136 0.0 3.5 0.00 0.00 0.00 99 1009.4
20260506104617 50 69 1.7 2.6 0.00 0.00 0.00 99 1009.3
20260506104114 50 292 0.9 4.3 0.00 0.00 0.00 99 1009.2
20260506103612 50 315 0.9 1.7 0.00 0.00 0.00 99 1009.3
20260506103108 50 180 0.0 4.3 0.00 0.00 0.00 99 1009.3
20260506102607 50 45 0.0 2.6 0.00 0.00 0.00 99 1009.2
20260506102104 50 17 0.0 1.7 0.00 0.00 0.00 99 1009.1
20260506101600 50 92 0.9 1.7 0.00 0.00 0.00 99 1009.1
20260506101057 50 75 0.0 1.7 0.00 0.00 0.00 99 1008.9
20260506100555 50 56 0.9 1.7 0.00 0.00 0.00 99 1008.9
20260506100053 50 89 0.0 1.7 0.00 0.00 0.00 99 1009.0
20260506095552 50 249 0.0 1.7 0.00 0.00 0.00 99 1008.9
20260506095048 50 29 0.0 1.7 0.00 0.00 0.00 99 1008.8
20260506094545 51 123 1.7 2.6 0.00 0.00 0.00 99 1008.7
20260506094043 51 157 1.7 2.6 0.00 0.00 0.00 99 1008.9
20260506093541 51 63 0.9 1.7 0.00 0.00 0.00 99 1008.9
20260506093038 51 89 0.0 2.6 0.00 0.00 0.00 99 1008.8
20260506092536 51 115 1.7 1.7 0.00 0.00 0.00 99 1008.8
20260506092033 51 217 0.0 2.6 0.00 0.00 0.00 99 1008.7
20260506091531 51 102 0.0 0.9 0.00 0.00 0.00 99 1008.7
20260506091028 51 166 0.0 1.7 0.00 0.00 0.00 99 1008.8
20260506090526 51 191 0.0 1.7 0.00 0.00 0.00 98 1008.6
20260506090022 51 104 0.0 2.6 0.00 0.00 0.00 98 1008.4
20260506085519 51 68 0.0 1.7 0.00 0.00 0.00 98 1008.5
20260506085015 51 106 0.9 1.7 0.00 0.00 0.00 98 1008.5
20260506084512 51 143 1.7 2.6 0.00 0.00 0.00 98 1008.3
20260506084008 51 138 1.7 1.7 0.00 0.00 0.00 98 1008.4
20260506083506 51 120 1.7 1.7 0.00 0.00 0.00 97 1008.5
20260506083003 51 142 0.0 1.7 0.00 0.00 0.00 97 1008.4
20260506082500 51 120 1.7 1.7 0.00 0.00 0.00 97 1008.3
20260506081955 51 82 1.7 1.7 0.00 0.00 0.00 97 1008.2
20260506081454 51 103 0.0 1.7 0.00 0.00 0.00 97 1008.2
20260506080951 52 123 0.0 1.7 0.00 0.00 0.00 96 1008.2
20260506080448 52 80 0.0 1.7 0.00 0.00 0.00 96 1008.2
20260506073432 53 108 0.9 1.7 0.00 0.00 0.00 94 1008.3
20260506072929 53 204 0.0 1.7 0.00 0.00 0.00 93 1008.3
20260506072426 54 329 0.0 1.7 0.00 0.00 0.00 92 1008.3
20260506071924 54 154 0.0 1.7 0.00 0.00 0.00 92 1008.3
20260506071422 54 284 0.0 1.7 0.00 0.00 0.00 91 1008.2
20260506070918 55 297 0.0 1.7 0.00 0.00 0.00 91 1008.1
20260506070415 55 145 0.9 2.6 0.00 0.00 0.00 91 1008.3